SCP
0 0 0 0 0 0 0 0 0 0 0 0 0 0 0 0 0 0 0 0 0 0 0 0 0 0 0 0 0 0 0 0 0 0 0 0 0 0 0 0 0 0 0
0 0 0 0 0 0 0 0 0 0 0 0 0 0 0 0 0 0 0 0 0 0 0 0 0 0 0 0 0 0 0 0 0 0 0 0 0 0 0 0 0 0 0
0 0 0 0 0 0 0 0 0 0 0 0 0 0 0 0 0 0 0 0 0 0 0 0 0 0 0 0 0 0 0 0 0 0 0 0 0 0 0 0 0 0 0
0 0 0 0 0 0 0 0 0 0 0 0 0 0 0 0 0 0 0 0 0 0 0 0 0 0 0 0 0 0 0 0 0 0 0 0 0 0 0 0 0 0 0
0 0 0 0 0 0 0 0 0 0 0 0 0 0 0 0 0 0 0 0 0 0 0 0 0 0 0 0 0 0 0 0 0 0 0 0 0 0 0 0 0 0 0
0 0 0 0 0 0 0 0 0 0 0 0 0 1 0 0 0 0 0 0 0 0 0 0 0 0 0 0 0 0 0 0 0 0 0 0 0 0 0 0 0 0 0
0 0 0 1 1 1 0 0 0 0 0 0 0 0 0 0 0 0 0 0 0 0 0 0 0 0 0 0 0 0 0 0 0 0 0 0 1 1 1 0 0 0 0
1 1 1 1 1 1 1 1 0 0 0 0 0 0 0 0 0 0 0 0 0 0 0 0 0 0 0 0 0 0 0 0 0 0 0 1 1 1 1 1 1 0 0
1 1 1 1 1 1 1 1 1 0 0 0 0 0 0 0 1 1 1 1 1 0 0 0 0 0 0 0 0 0 0 0 0 0 0 1 1 2 1 1 1 1 0
1 1 1 1 1 1 1 1 1 1 1 0 0 0 1 1 1 1 1 1 1 1 1 1 1 1 1 1 1 1 1 1 0 0 0 1 2 2 2 1 1 1 1
1 1 1 1 1 1 1 1 1 1 1 1 1 1 1 1 1 1 1 1 1 1 1 1 1 1 1 1 1 1 1 1 0 0 1 1 2 2 2 1 1 1 1
2 2 1 1 1 1 1 1 1 1 1 1 1 1 1 1 1 1 1 2 2 1 1 1 1 1 1 1 1 1 1 1 1 1 1 2 2 2 2 1 1 1 1
2 2 2 2 2 1 1 1 1 1 1 1 2 2 2 2 1 1 2 2 2 2 2 2 2 2 1 1 1 1 1 1 1 1 1 2 2 2 2 1 1 1 1
3 3 4 4 4 3 2 2 2 2 2 2 2 2 2 2 2 2 2 3 3 2 2 2 2 2 2 1 1 1 1 1 1 1 1 2 2 2 2 1 1 1 1
4 4 6 7 7 5 4 3 3 3 3 3 3 3 3 3 3 3 3 3 3 3 3 3 3 2 2 2 2 1 1 1 1 1 2 2 2 2 2 2 1 1 1
5 6 7 9 8 6 5 4 4 4 3 3 4 4 4 4 4 4 4 4 4 4 4 4 4 3 3 2 2 2 2 2 2 2 2 2 2 2 2 2 2 2 2
6 6 7 8 7 6 5 5 4 4 4 4 4 5 5 5 6 6 5 5 5 5 5 5 4 4 3 3 2 2 2 2 2 2 3 3 2 2 2 2 2 2 2
6 6 6 6 5 5 5 5 5 4 4 5 5 6 7 7 7 7 6 6 6 7 6 5 5 4 4 3 3 3 3 4 3 3 3 3 3 3 3 3 4 4 4
5 5 5 5 5 5 5 5 5 5 5 5 6 7 8 8 8 8 7 6 7 7 7 6 5 5 5 4 3 4 4 4 4 3 3 3 3 3 3 3 5 7 5
4 4 4 4 4 5 5 5 5 5 5 5 6 7 8 8 8 8 7 7 7 7 7 6 6 6 6 5 5 4 4 4 3 3 3 3 3 2 2 3 4 5 5
4 4 4 4 4 4 4 4 5 5 5 5 6 6 7 7 8 8 8 8 7 7 7 7 8 8 8 8 7 5 4 3 3 3 3 3 2 2 2 2 3 3 3
3 3 3 4 4 4 4 4 5 5 6 6 7 7 8 8 8 8 8 8 7 7 8 8 8 9 9 10 9 7 5 4 3 3 3 3 2 2 2 2 2 3 3
2 2 3 4 4 4 4 4 4 5 6 6 7 7 8 8 8 9 8 7 7 7 7 7 7 7 8 8 7 6 5 4 4 3 3 2 2 2 2 2 2 2 3
1 1 2 3 4 4 4 3 3 4 4 5 5 6 7 8 8 8 7 7 6 5 5 6 6 6 6 5 5 4 4 3 3 2 2 2 2 2 2 2 2 2 2
1 1 1 2 3 3 3 3 3 3 3 3 4 4 5 6 6 6 5 5 4 4 4 4 5 4 4 3 3 3 3 2 2 1 1 1 1 1 1 2 2 1 1
0 1 1 2 2 3 3 3 3 3 3 3 3 4 4 5 5 5 4 4 4 4 4 4 4 3 3 2 2 2 2 2 1 1 1 1 1 1 1 2 1 1 1
Wind_Speed
18 19 20 16 15 15 15 14 13 13 14 13 12 11 10 9 9 9 8 8 9 9 10 10 10 10 10 11 11 10 10 10 10 10 9 8 7 6 6 5 3 9 10
21 20 19 16 15 14 15 14 13 13 13 13 12 11 10 8 8 7 7 7 7 8 8 8 8 9 8 9 8 8 7 6 6 5 6 6 6 5 5 5 6 9 10
21 20 18 16 15 14 13 13 13 13 13 13 12 10 9 8 7 6 6 6 6 6 6 6 6 7 7 6 6 6 5 4 2 3 6 6 7 6 4 5 8 9 8
20 18 17 17 15 14 12 12 13 12 12 12 11 10 9 7 6 6 6 6 6 5 5 5 5 5 5 4 4 4 5 4 4 6 7 8 8 10 7 5 5 6 6
18 16 17 17 16 15 13 12 12 12 12 12 11 10 9 8 7 7 6 6 5 5 5 4 4 4 4 4 4 4 4 5 6 9 9 4 7 12 10 8 6 6 6
18 17 17 15 15 15 14 13 13 12 12 11 10 10 9 9 8 7 7 6 5 4 4 4 5 5 5 4 5 6 6 7 8 8 9 4 8 13 13 10 9 9 8
17 17 17 15 14 14 14 13 12 12 11 10 9 9 9 9 9 9 8 7 6 5 5 5 5 5 5 5 5 6 7 8 9 10 7 2 6 14 14 12 10 8 8
18 18 15 16 15 14 14 13 12 11 11 10 9 9 8 8 8 8 9 8 8 7 6 6 6 6 6 7 7 7 9 10 11 11 8 6 12 16 15 14 11 10 10
18 18 14 14 13 14 14 13 12 12 11 11 10 10 10 10 10 10 10 10 9 9 8 8 8 8 8 9 9 10 11 12 11 9 11 4 15 17 16 15 13 12 11
16 18 15 14 13 12 12 13 13 13 12 12 12 11 11 11 12 13 12 12 12 11 10 10 11 12 11 12 13 13 13 11 11 12 8 6 17 16 15 14 14 12 11
15 15 16 16 14 13 13 14 13 12 12 11 11 12 11 9 11 12 15 16 16 14 14 13 14 14 14 14 16 16 13 8 11 10 7 8 16 16 15 14 13 13 12
14 15 13 14 13 11 11 11 9 10 10 10 9 11 10 9 9 10 13 17 18 18 17 16 16 15 14 10 13 18 8 11 11 8 3 13 15 16 15 14 14 13 13
12 12 12 11 12 11 6 9 7 7 8 11 12 11 9 7 7 7 5 10 11 14 11 11 12 10 10 8 5 6 9 8 6 6 4 12 14 15 15 14 14 14 14
11 13 12 10 10 8 7 7 7 7 6 7 9 9 7 5 5 5 3 5 7 7 8 7 6 9 9 9 6 5 7 6 5 3 4 12 14 15 15 14 14 15 15
10 11 11 9 8 5 4 3 5 6 6 7 6 7 8 6 7 7 4 4 4 4 5 6 6 4 5 5 4 5 5 6 6 7 3 12 14 15 15 15 16 17 17
10 8 8 11 9 7 6 4 4 5 4 6 6 9 11 9 8 6 5 5 5 5 4 5 6 6 6 5 5 6 7 8 6 6 5 6 12 14 16 17 17 18 18
11 10 7 10 10 9 9 9 7 8 9 8 7 8 10 11 9 6 5 4 5 5 4 3 4 4 4 4 6 8 7 6 5 5 5 4 5 13 18 19 19 19 19
8 8 8 9 11 11 9 8 8 9 10 8 7 7 9 10 8 6 6 6 5 4 2 2 2 3 4 4 5 6 5 3 5 5 6 6 7 8 13 20 20 21 21
4 4 5 6 6 7 8 8 9 8 8 7 6 6 7 9 9 8 6 6 5 4 4 5 4 4 5 5 5 5 4 4 5 7 7 8 8 8 7 13 23 23 23
5 4 4 5 5 5 5 5 6 8 7 7 7 7 7 6 8 7 6 7 6 6 6 6 6 5 5 4 6 7 5 5 6 7 9 8 8 10 10 8 10 15 22
4 3 4 4 3 2 4 6 6 6 5 6 7 8 8 7 6 4 5 5 5 6 6 7 6 7 6 4 3 5 8 9 9 7 7 7 8 9 8 7 5 7 9
5 6 6 6 4 3 3 3 5 7 6 4 4 5 6 7 6 7 6 6 5 5 7 7 7 5 5 5 4 4 5 5 6 8 7 7 7 5 6 6 5 6 5
5 5 5 4 3 4 5 5 6 6 6 7 8 7 8 9 9 8 7 6 6 6 7 7 7 9 6 5 5 5 5 3 2 3 2 1 2 2 3 4 4 4 5
4 5 4 3 4 5 6 8 10 9 9 9 7 7 7 8 8 8 8 7 6 6 6 6 6 4 5 4 3 5 5 2 0 3 3 3 4 4 5 4 4 5 5
4 4 4 5 4 5 6 7 8 10 10 9 9 9 8 7 6 7 7 6 6 5 4 4 2 2 1 2 3 4 3 2 2 2 3 3 3 3 3 3 3 3 5
3 3 4 5 6 6 5 6 7 10 11 12 12 10 7 4 5 7 7 6 6 5 6 5 4 4 3 4 4 3 3 1 1 2 2 2 3 3 3 2 2 2 2
Wind_Direction
123 134 133 133 131 138 143 143 141 137 131 128 126 125 122 117 112 105 98 94 95 97 98 98 98 94 89 83 76 70 68 68 70 74 80 84 81 74 71 71 107 103 99
126 130 132 133 132 138 147 148 145 143 138 138 138 135 131 122 115 111 107 103 100 99 98 100 104 105 103 101 100 96 89 87 93 106 121 126 115 93 65 33 50 113 118
126 131 134 136 135 137 143 150 150 150 147 145 144 140 135 131 127 126 122 117 112 110 109 107 106 107 110 114 120 123 123 125 149 186 196 181 149 142 122 90 93 112 123
128 137 139 140 137 135 136 144 151 153 151 147 143 139 140 144 147 149 147 139 130 125 126 128 125 123 128 135 146 151 156 172 216 241 231 217 169 154 153 139 126 133 147
129 136 134 143 139 138 139 142 148 151 151 150 147 147 151 157 162 160 157 154 150 146 144 146 149 157 166 172 184 195 200 209 232 254 262 229 140 152 157 163 169 176 179
133 134 137 147 143 143 144 145 148 153 155 157 156 158 165 171 173 171 169 172 175 179 180 178 181 187 196 203 208 216 227 238 248 249 253 223 138 163 164 174 191 197 201
138 132 142 149 149 148 150 152 156 158 160 163 167 173 181 187 186 186 186 190 193 201 212 202 196 206 210 218 227 236 245 250 256 267 267 250 153 164 170 181 200 210 208
133 130 141 148 153 154 157 160 166 168 167 171 178 184 188 189 193 194 198 201 203 205 209 204 211 222 225 228 233 241 248 259 257 259 250 200 165 169 176 185 199 214 227
133 130 145 150 156 161 164 166 169 172 175 182 189 194 199 203 207 208 210 214 214 207 209 215 224 233 238 239 239 240 244 250 267 276 274 201 164 176 183 188 197 212 231
139 139 150 154 158 166 168 172 176 179 183 188 195 201 208 215 219 218 216 218 220 215 215 219 226 234 240 244 243 240 242 248 252 259 260 209 170 180 188 194 202 214 228
147 148 159 158 161 171 176 174 180 188 195 198 204 213 217 225 224 219 223 216 215 217 218 221 226 234 238 243 245 243 239 239 249 246 245 193 172 178 189 198 207 218 228
152 157 165 163 164 181 187 167 184 191 194 205 211 207 213 226 238 231 212 214 215 216 217 222 227 232 235 245 242 233 232 236 251 260 212 161 174 183 194 203 208 218 230
161 166 169 166 162 185 196 167 189 199 192 199 217 211 211 224 238 238 206 202 211 214 218 224 226 232 234 236 239 200 213 236 240 248 175 170 186 193 200 210 216 221 229
179 177 177 171 167 189 198 191 188 200 198 200 200 210 217 219 244 238 211 196 200 209 207 216 209 218 229 240 239 223 212 222 251 268 182 192 202 204 208 215 221 227 232
186 184 168 163 165 182 226 247 213 207 205 201 202 206 218 219 227 233 221 214 230 224 192 206 224 231 251 258 258 266 268 250 225 237 208 201 208 212 217 221 224 229 233
181 202 180 173 175 187 207 231 249 237 225 240 224 210 211 217 222 222 215 208 220 241 236 210 207 210 218 227 240 247 248 248 229 216 226 221 219 221 223 226 228 230 232
179 204 197 184 187 199 214 220 230 235 239 232 234 222 208 212 216 211 216 218 220 234 245 255 247 237 234 234 234 238 236 235 250 244 236 242 240 228 224 225 227 231 233
193 201 198 205 200 200 213 221 230 234 235 237 233 225 217 221 219 214 222 223 218 223 229 237 251 269 268 262 254 240 229 215 236 246 239 229 234 245 227 221 223 228 231
226 222 208 233 233 213 219 228 239 245 248 253 248 234 221 217 218 212 223 225 218 223 225 233 228 226 244 254 261 253 233 216 227 245 245 246 246 241 240 216 218 223 226
233 233 242 257 283 312 303 277 259 259 260 261 266 270 262 238 224 218 224 218 217 227 224 217 221 223 230 237 262 274 274 246 226 227 235 241 247 250 247 234 213 223 225
225 231 248 266 289 313 310 307 299 289 279 271 268 270 275 275 266 246 254 248 229 237 241 232 223 222 223 209 229 262 260 248 239 228 223 227 236 245 242 238 213 208 219
215 214 221 235 258 273 278 287 283 283 282 283 277 269 261 259 258 252 247 251 248 248 251 246 239 234 225 204 203 235 255 246 243 237 216 213 224 238 247 246 240 230 226
237 240 254 251 261 274 273 275 274 270 264 260 255 250 245 240 235 232 240 244 248 246 246 241 236 235 233 232 219 227 244 245 348 334 333 226 226 275 269 258 264 275 273
332 333 329 296 247 241 247 255 262 268 271 270 266 258 246 236 233 229 232 235 244 247 247 249 242 239 240 250 269 255 258 290 339 332 333 342 8 347 328 324 315 309 284
298 306 312 299 278 256 247 250 258 264 267 272 272 265 257 245 224 223 222 224 223 227 230 226 227 223 223 249 265 273 268 257 198 224 279 311 323 301 293 300 285 298 308
284 295 305 313 303 288 269 264 266 271 274 275 275 275 270 243 213 210 215 218 218 220 219 212 208 213 210 229 250 267 276 274 224 220 257 284 290 291 290 272 274 281 310